Anchorage Merrill, AK

11:18 PM AKDT on June 20, 2018 (GMT -0800)
Merrill

Weather History for PAMR - November, 2017

Change the Weather History Date:

Tuesday, November 14, 2017

  Actual Average Record
Temperature  
Mean Temperature 26 °F -  
Max Temperature 30 °F 28 °F 45 °F (2000)
Min Temperature 18 °F 17 °F 1 °F (2001)
Degree Days  
Heating Degree Days 40    
Moisture  
Dew Point 13 °F    
Average Humidity 55    
Maximum Humidity 71    
Minimum Humidity 49    
Precipitation  
Precipitation 0.00 in - - ()
Snow  
Snow 0.00 in - - ()
Snow Depth 3.00 in    
Sea Level Pressure  
Sea Level Pressure 30.13 in    
Wind  
Wind Speed 10 mph (NNW)    
Max Wind Speed 16 mph    
Max Gust Speed 26 mph    
Visibility 10 miles    
Events      
Averages and records for this station are not official NWS values.
T = Trace of Precipitation, MM = Missing Value Source: NWS Daily Summary

Daily Weather History Graph

Daily Weather History Graph

Search for Another Location

Airport or City:

Astronomy

Nov. 14, 2017 Rise Set
Actual Time 9:03 AM AKST 4:23 PM AKST
Civil Twilight 8:12 AM AKST 5:14 PM AKST
Nautical Twilight 7:18 AM AKST 6:08 PM AKST
Astronomical Twilight 6:27 AM AKST 6:59 PM AKST
Moon 3:52 AM AKST (11/14) 4:06 PM AKST (11/14)
Length of Visible Light 9h 02m
Length of Day
7h 19m
Waning Crescent, 12% of the Moon is Illuminated
Nov 14
Waning Crescent
Nov 18
New
Nov 26
First Quarter
Dec 3
Full
Dec 9
Last Quarter

Hourly Weather History & Observations

Time (AKST) Temp. Windchill Dew Point Humidity Pressure Visibility Wind Dir Wind Speed Gust Speed Precip Events Conditions
12:53 AM 28.0 °F 18.6 °F 14.0 °F 56% 30.08 in 10.0 mi NNW 10.4 mph 17.3 mph N/A   Clear
1:53 AM 27.0 °F 18.7 °F 14.0 °F 58% 30.09 in 10.0 mi North 8.1 mph - N/A   Clear
2:53 AM 27.0 °F 15.2 °F 14.0 °F 58% 30.09 in 10.0 mi NNW 15.0 mph 23.0 mph N/A   Clear
3:53 AM 27.0 °F 14.7 °F 12.9 °F 56% 30.09 in 10.0 mi NNW 16.1 mph 23.0 mph N/A   Clear
4:53 AM 27.0 °F 14.7 °F 12.9 °F 56% 30.11 in 10.0 mi NNW 16.1 mph - N/A   Clear
5:53 AM 27.0 °F 14.7 °F 12.9 °F 56% 30.11 in 10.0 mi NNW 16.1 mph - N/A   Clear
6:53 AM 27.0 °F 19.5 °F 12.9 °F 56% 30.12 in 10.0 mi NNW 6.9 mph - N/A   Clear
7:53 AM 27.0 °F 19.5 °F 12.9 °F 56% 30.13 in 10.0 mi NNW 6.9 mph 12.7 mph N/A   Clear
8:53 AM 26.1 °F 19.4 °F 12.9 °F 58% 30.14 in 10.0 mi Variable 5.8 mph - N/A   Clear
9:53 AM 21.0 °F - 12.0 °F 68% 30.17 in 10.0 mi Calm Calm - N/A   Clear
10:53 AM 28.0 °F 20.0 °F 12.9 °F 53% 30.16 in 10.0 mi WNW 8.1 mph - N/A   Clear
11:53 AM 30.0 °F 25.2 °F 12.9 °F 49% 30.16 in 10.0 mi NNE 4.6 mph - N/A   Clear
12:53 PM 30.0 °F 21.1 °F 12.9 °F 49% 30.16 in 10.0 mi NNW 10.4 mph - N/A   Clear
1:53 PM 30.9 °F 22.2 °F 14.0 °F 50% 30.17 in 10.0 mi North 10.4 mph - N/A   Clear
2:53 PM 30.9 °F 22.2 °F 15.1 °F 52% 30.15 in 10.0 mi North 10.4 mph - N/A   Clear
3:53 PM 30.0 °F 20.0 °F 15.1 °F 54% 30.15 in 10.0 mi NNW 12.7 mph - N/A   Clear
4:53 PM 28.9 °F 19.2 °F 14.0 °F 54% 30.15 in 10.0 mi NNW 11.5 mph - N/A   Clear
5:53 PM 28.9 °F 21.1 °F 12.9 °F 51% 30.14 in 10.0 mi North 8.1 mph - N/A   Clear
6:53 PM 28.9 °F 18.2 °F 12.9 °F 51% 30.13 in 10.0 mi NNW 13.8 mph - N/A   Clear
7:53 PM 28.9 °F 17.7 °F 12.0 °F 49% 30.13 in 10.0 mi NNW 15.0 mph 26.5 mph N/A   Clear
8:53 PM 27.0 °F 15.2 °F 12.0 °F 53% 30.13 in 10.0 mi NNW 15.0 mph 20.7 mph N/A   Clear
9:53 PM 27.0 °F 19.5 °F 12.0 °F 53% 30.13 in 10.0 mi Variable 6.9 mph - N/A   Clear
10:53 PM 23.0 °F 17.0 °F 10.9 °F 60% 30.14 in 10.0 mi Variable 4.6 mph - N/A   Clear
11:53 PM 18.0 °F - 10.0 °F 71% 30.14 in 10.0 mi Calm Calm - N/A   Clear